Presure
146 166 153 142 139 149 140 161 169 149 151 137 156 168 179 166 185 247 234 224 205 205 178 195 200 196 190 188 180 171 165 170 183 183 183 188 186 182 166 172 175 173 171 178 188 191 187
147 154 154 159 146 140 162 151 155 143 172 160 178 158 151 153 164 188 238 246 218 203 193 183 182 198 195 185 180 176 171 167 163 175 182 182 183 181 183 177 161 171 170 173 172 170 172
150 155 155 157 156 158 168 150 163 157 165 146 170 161 158 162 159 176 264 252 226 207 197 190 189 192 196 181 181 177 173 173 168 168 162 189 185 185 197 202 203 202 199 152 158 160 181
142 166 159 155 149 144 147 169 145 170 176 170 184 168 159 168 179 182 180 252 233 213 203 193 195 190 179 186 182 182 181 178 172 169 170 176 184 192 190 191 189 193 198 201 201 204 198
135 146 151 146 159 150 162 163 165 161 155 172 146 159 162 149 167 164 177 169 240 222 207 208 197 193 187 193 186 181 180 174 173 175 173 184 178 174 180 178 180 185 183 181 184 189 190
145 165 127 155 154 152 161 156 163 179 158 165 155 168 141 166 180 159 168 162 165 235 218 203 196 179 196 188 192 191 178 182 167 170 167 172 169 168 176 180 180 175 176 181 189 192 188
150 160 148 159 172 157 140 171 150 140 165 170 163 154 156 168 152 182 170 173 172 198 230 213 194 192 192 196 198 201 179 178 175 171 177 164 169 175 167 168 171 172 175 181 180 180 180
141 158 149 137 136 163 147 158 151 155 145 149 160 164 138 174 141 162 151 165 179 165 215 224 208 197 214 212 204 200 185 182 179 176 179 177 170 170 171 179 170 178 173 175 179 180 184
148 147 170 144 133 139 141 156 164 163 161 174 146 170 160 142 171 169 125 163 180 173 167 212 215 201 196 192 199 193 190 188 182 178 176 171 172 167 169 170 167 176 172 171 177 182 179
162 160 162 154 165 154 156 155 155 151 174 156 146 166 158 173 143 186 191 198 183 178 194 186 227 214 203 196 199 191 186 190 181 184 187 182 181 181 168 175 176 170 167 171 182 182 179
125 158 155 133 126 154 152 164 138 162 165 154 164 162 162 176 167 172 171 191 163 177 169 173 180 219 208 209 199 195 201 191 190 185 177 188 190 197 192 178 169 174 179 182 179 176 190
145 162 156 142 151 157 140 138 163 157 161 171 163 163 159 162 176 146 170 151 179 183 161 185 185 223 218 211 199 200 196 147 199 202 205 203 202 189 184 187 187 177 177 178 186 191 187
152 158 155 157 150 154 141 151 144 152 169 160 170 151 166 162 173 155 183 183 173 191 187 171 179 202 226 212 202 217 214 208 202 186 180 187 191 197 197 175 177 178 190 191 187 190 195
153 144 145 146 159 159 132 147 167 168 163 155 163 162 164 160 182 176 189 131 180 145 179 165 178 203 209 213 218 194 200 207 204 198 191 186 193 193 182 181 186 191 191 182 205 200 213
157 155 161 153 160 131 163 157 142 160 161 145 164 161 155 177 165 170 173 187 191 155 185 190 188 206 214 204 214 202 185 200 201 199 201 201 197 195 192 192 192 193 194 206 203 207 188
155 162 162 174 147 144 159 157 162 150 154 151 154 159 162 166 162 167 175 186 185 154 154 168 176 185 201 212 208 200 202 192 194 191 207 202 196 195 195 191 187 199 197 217 208 191 186
154 155 165 160 169 161 157 158 168 159 165 170 164 161 171 174 175 176 178 173 158 179 187 160 177 204 211 206 209 204 203 203 186 178 193 197 191 193 194 186 201 196 210 197 186 196 203
164 175 140 147 159 129 158 151 163 154 167 151 166 156 160 161 188 182 183 187 161 180 187 180 187 184 215 205 210 202 201 202 192 199 200 199 199 194 182 194 199 216 202 178 190 204 210
158 172 141 163 161 155 163 166 174 164 171 164 176 172 168 161 169 164 171 192 187 160 178 175 181 208 217 204 204 203 198 190 198 191 188 195 195 184 194 195 216 197 186 187 199 206 203
144 169 157 172 159 150 158 161 170 162 175 173 169 167 172 172 159 165 171 190 176 168 181 195 169 203 203 201 200 203 200 191 193 180 188 195 190 188 189 204 198 193 185 191 196 205 206
141 170 157 164 174 166 161 164 171 171 150 162 165 168 155 156 184 178 169 171 171 182 178 144 205 210 205 206 197 207 192 200 192 184 196 195 185 190 197 195 207 182 189 196 200 197 205
169 163 179 167 169 176 169 162 161 180 173 147 179 159 161 172 155 168 182 160 180 179 186 214 217 205 212 197 205 197 192 190 189 194 190 189 195 194 203 201 190 181 193 209 202 200 206
163 179 174 182 184 176 180 174 171 174 174 171 170 168 159 163 159 184 173 180 180 180 195 229 220 205 205 209 203 196 190 190 188 184 191 194 193 203 193 198 183 182 204 197 210 206 211
174 178 184 182 186 191 178 173 177 180 166 190 168 169 161 162 168 170 175 187 205 191 217 218 208 213 213 202 198 197 186 183 193 189 189 193 197 201 200 181 181 197 198 209 204 207 224
187 175 188 179 179 179 194 190 177 180 165 153 185 190 164 168 167 178 186 233 211 214 219 212 213 215 206 202 190 196 186 194 189 187 201 202 200 187 211 189 193 195 209 208 210 218 223
183 172 175 191 188 182 185 185 192 170 165 166 184 170 186 165 212 233 228 246 237 229 225 217 218 209 211 190 196 190 194 187 194 192 191 197 193 203 194 191 200 199 211 212 220 219 228
187 179 173 189 184 172 190 183 153 193 193 184 187 173 203 236 258 233 252 231 223 228 218 216 210 203 184 192 190 188 187 190 191 191 194 195 202 192 198 204 195 208 209 216 220 225 243
174 192 192 167 168 159 180 154 193 219 182 226 237 261 231 265 257 249 234 223 224 222 216 217 200 185 190 187 187 192 189 188 194 193 198 194 186 187 204 193 207 209 214 213 224 237 300
172 212 211 216 207 161 155 242 274 231 217 260 236 245 240 256 248 238 225 227 226 215 218 197 193 193 193 191 188 192 188 196 190 200 192 205 189 202 188 205 210 212 213 222 230 255 323
Wind_Speed
25 39 28 27 29 28 32 30 43 28 28 32 28 42 56 45 55 33 28 26 30 27 29 29 30 31 28 23 22 23 25 22 18 19 21 25 31 35 39 40 42 44 47 48 50 54 58
27 33 33 42 32 33 39 36 21 33 52 29 57 37 32 31 47 54 32 27 25 27 30 30 29 29 25 22 22 23 25 25 22 20 25 28 30 33 35 42 49 49 49 50 53 56 59
31 38 40 39 35 41 51 24 42 36 45 34 50 34 41 39 37 58 32 29 23 27 32 31 29 28 25 24 24 25 27 27 27 26 28 33 34 36 39 39 39 40 43 56 57 59 63
33 46 44 40 36 32 29 54 33 53 56 49 63 51 28 50 66 62 62 29 27 26 31 32 28 28 30 28 28 29 29 29 28 30 31 33 34 36 37 38 36 37 41 44 48 51 58
38 37 38 32 46 43 50 45 48 41 35 59 34 32 39 34 45 45 59 54 32 30 32 33 35 33 33 32 32 31 30 32 31 31 32 34 28 29 30 31 32 34 37 42 44 47 51
38 48 33 45 45 38 49 43 54 60 47 52 36 60 42 60 70 45 50 43 48 34 33 32 34 36 38 37 37 36 34 35 32 32 31 33 33 35 34 34 35 38 42 43 45 48 53
42 50 44 53 54 49 38 59 36 37 59 57 51 34 42 66 33 71 56 55 59 60 37 33 36 36 37 41 40 38 38 39 38 37 41 37 37 40 39 40 41 44 47 50 52 54 56
45 51 44 37 36 55 40 53 42 48 34 42 47 58 41 69 44 50 37 53 62 51 48 39 36 36 38 40 41 39 41 43 43 43 43 43 42 44 46 49 48 53 52 55 59 61 63
45 48 55 43 40 40 41 55 64 64 57 70 40 61 57 43 61 55 40 53 60 59 53 48 39 39 39 40 40 41 43 45 46 47 47 45 48 46 49 50 52 56 56 59 65 67 69
60 57 55 52 58 53 52 50 48 50 66 51 48 62 52 70 43 73 72 63 68 65 64 58 39 39 41 42 43 44 46 48 48 50 53 52 53 55 51 56 59 57 62 65 72 72 74
46 59 56 45 44 54 49 67 44 67 69 51 65 59 60 76 65 74 67 78 43 53 49 56 58 40 42 45 45 47 51 52 53 55 51 58 58 61 61 61 59 66 71 74 75 77 84
53 63 62 47 52 61 45 46 64 62 64 73 62 66 56 61 82 53 72 44 67 60 43 67 60 41 41 42 45 49 52 53 56 58 59 61 60 61 62 66 68 69 72 75 80 83 85
64 68 63 64 53 64 47 58 47 58 75 67 76 51 74 66 84 55 69 78 67 72 70 53 63 58 41 44 47 46 48 51 54 56 59 61 63 65 65 65 70 73 79 82 79 84 91
69 55 52 50 72 70 54 51 78 76 72 54 70 71 70 68 82 87 76 47 79 49 67 49 69 61 51 47 47 47 49 51 55 58 61 63 63 65 67 71 75 77 81 82 91 88 86
77 75 80 73 79 56 80 69 58 67 70 50 74 72 62 87 82 80 78 81 78 55 79 80 75 67 54 54 49 51 51 52 54 57 61 63 65 68 71 74 76 78 83 86 89 86 84
73 80 80 81 56 53 80 71 79 52 69 60 63 72 78 82 75 78 91 85 82 57 59 60 71 76 66 56 57 54 54 56 57 60 61 64 67 71 73 75 77 86 86 89 85 87 91
75 74 76 81 84 80 74 78 87 75 83 87 83 68 90 93 88 93 86 83 60 82 83 57 75 75 63 64 60 57 58 58 60 64 68 69 71 75 77 77 86 85 90 83 87 91 96
91 85 69 65 83 60 77 60 86 75 84 55 85 75 70 78 90 94 92 92 67 89 89 83 86 82 65 67 59 61 63 63 65 68 70 73 75 77 77 82 88 90 85 87 89 95 103
87 91 62 90 88 80 88 89 95 91 98 92 95 89 88 79 89 77 90 94 91 70 86 77 87 78 67 70 66 65 66 66 67 70 73 75 77 77 81 87 94 85 85 89 93 99 105
74 94 76 95 85 66 81 84 96 78 97 98 93 82 97 101 71 83 87 93 87 82 92 99 69 76 79 73 73 71 69 69 71 74 76 79 79 80 82 92 86 85 89 92 96 103 111
64 104 72 96 100 99 89 84 98 89 63 90 89 98 78 74 102 97 87 90 87 98 93 71 88 77 76 73 76 74 71 71 75 78 82 82 80 82 89 87 92 89 94 95 100 103 112
107 92 107 103 101 103 93 88 84 104 100 61 101 83 85 104 71 86 105 72 97 97 101 83 75 80 75 77 76 72 73 75 79 83 84 85 88 88 95 93 86 93 100 107 104 110 116
81 108 95 108 107 100 105 105 104 109 107 103 104 98 83 89 79 104 93 100 99 99 101 69 69 80 77 75 73 75 75 79 81 84 88 91 90 96 88 94 89 94 110 104 115 117 124
104 103 109 102 106 103 108 98 108 108 82 105 82 96 84 85 87 94 97 103 102 99 79 74 79 75 73 74 73 75 78 79 86 87 90 94 97 97 94 91 90 105 106 114 109 121 134
101 96 103 105 105 99 108 112 109 105 90 73 107 106 84 89 89 99 100 74 90 79 74 76 75 73 74 71 75 76 80 84 86 89 99 102 102 91 106 93 98 107 115 115 117 132 133
103 87 86 89 101 101 109 106 105 88 90 87 109 88 101 80 96 80 77 63 66 69 69 70 71 74 70 74 76 79 82 85 88 91 97 101 96 106 101 99 104 109 120 123 130 130 140
106 82 87 103 106 85 91 107 73 103 109 107 106 80 104 79 64 74 56 59 66 64 64 69 71 68 74 74 78 82 84 89 91 93 98 100 106 102 108 110 106 121 123 129 133 139 146
82 94 91 78 77 76 102 72 94 104 61 67 82 66 75 52 57 54 58 63 61 62 65 65 64 72 73 77 81 84 87 89 93 96 100 99 99 102 112 109 119 125 130 128 139 149 116
74 104 107 109 107 77 73 101 71 93 87 72 69 69 69 58 56 58 59 60 61 61 62 63 67 71 75 80 82 86 89 93 93 99 99 108 105 111 105 119 126 130 129 140 146 146 102
Wind_Direction
283 321 304 301 300 309 305 332 339 319 322 315 347 347 348 358 359 333 319 295 291 284 300 289 291 293 297 299 296 291 291 295 295 290 283 274 267 259 254 256 257 255 254 255 255 254 253
294 315 313 318 309 302 325 318 322 305 344 342 344 335 343 333 359 354 330 317 299 286 285 293 301 293 287 290 292 288 289 292 292 294 288 283 278 270 268 260 255 256 254 255 255 255 253
301 312 312 314 317 329 328 304 337 326 332 314 344 342 330 354 345 357 333 322 308 293 288 287 292 290 289 290 288 283 285 289 290 295 281 290 286 283 280 280 275 272 267 256 258 258 257
282 306 309 313 308 302 295 326 300 333 331 338 337 334 345 350 343 350 354 326 315 304 296 296 292 290 293 287 285 281 283 286 288 291 295 295 294 286 286 284 281 280 278 275 274 272 269
276 294 297 300 309 308 319 320 324 327 325 334 312 334 343 315 352 344 354 350 324 312 305 298 300 292 293 290 286 285 285 287 289 289 291 293 291 287 284 277 277 279 277 275 274 275 273
280 305 283 301 305 308 317 318 326 322 323 334 322 336 309 329 335 333 350 346 347 319 313 304 302 302 296 295 290 287 286 283 285 286 285 286 281 281 286 288 286 278 279 283 284 282 280
291 305 295 305 306 311 289 313 303 294 327 322 330 318 320 332 328 335 340 348 345 344 314 305 304 301 299 295 291 286 285 285 286 288 286 283 282 287 277 280 286 286 288 290 288 285 285
280 297 291 283 287 308 299 315 309 316 298 306 326 325 302 328 308 322 322 333 338 336 331 313 304 299 294 290 291 285 284 283 286 288 290 291 290 292 292 294 289 293 289 290 296 293 293
283 288 291 286 283 290 294 311 310 313 310 314 300 325 324 300 331 323 306 326 335 337 331 329 307 302 300 298 293 289 287 285 286 288 289 290 288 287 289 290 286 292 290 288 294 295 292
286 289 290 289 296 299 300 306 312 315 308 313 296 321 316 326 300 331 328 327 330 331 336 335 306 302 297 297 291 291 291 286 287 286 285 286 288 290 289 292 293 290 288 293 297 296 294
273 286 289 279 278 294 300 302 287 309 308 309 312 317 320 325 329 329 328 327 322 321 334 337 333 305 301 293 294 295 291 291 290 290 293 291 292 293 290 292 294 295 296 298 297 296 298
281 281 286 280 289 296 283 286 302 307 308 308 311 318 317 322 324 305 325 302 319 328 316 333 335 313 302 298 298 295 294 300 292 293 293 295 295 293 294 294 294 295 296 296 298 301 301
280 281 284 286 289 292 282 295 296 300 305 308 309 307 321 318 322 306 315 323 323 323 326 325 333 329 307 301 301 303 298 295 293 293 297 298 297 297 297 295 297 298 299 300 301 303 304
276 276 277 280 286 289 282 288 298 300 306 304 309 314 318 318 316 322 316 295 321 301 323 320 326 326 324 319 304 304 304 298 295 294 295 296 297 298 298 299 300 301 303 302 304 305 306
278 280 279 284 288 278 292 297 285 299 302 289 308 312 316 311 319 320 320 314 317 305 321 323 326 327 317 319 313 308 302 305 303 301 300 299 299 299 299 300 302 304 304 305 305 305 299
276 278 280 277 277 276 287 294 295 293 292 298 304 309 308 312 311 314 317 314 315 306 309 316 323 323 320 311 316 309 305 303 304 305 305 304 302 302 302 304 305 309 308 307 306 301 296
278 277 275 280 278 279 286 290 290 294 296 298 302 302 305 310 310 313 314 316 304 315 316 306 319 318 311 315 312 309 305 304 306 302 307 306 304 304 307 307 310 311 308 305 301 307 311
273 270 274 273 284 274 286 284 291 291 296 293 303 299 305 308 310 313 312 310 308 314 314 316 317 318 305 314 311 308 306 307 307 307 307 307 309 308 307 312 312 310 309 300 303 316 322
274 270 261 277 278 282 282 284 284 292 292 297 298 301 305 305 308 308 310 307 310 304 311 312 317 310 301 311 310 307 307 309 307 305 306 308 309 308 313 314 312 311 305 304 315 322 322
268 273 269 272 277 276 281 285 285 292 288 292 298 298 303 304 299 307 307 306 307 306 311 313 303 306 309 308 308 307 305 306 304 304 307 308 309 311 315 315 313 311 305 311 315 325 325
255 272 274 276 271 277 281 283 285 283 285 294 293 297 294 292 302 303 305 305 305 306 308 297 307 300 304 304 305 303 305 305 304 305 307 309 309 313 317 315 316 308 310 318 322 321 325
267 272 271 274 277 276 278 283 286 282 286 278 290 296 299 299 292 300 302 296 303 304 307 300 293 301 298 301 301 302 303 303 304 306 308 308 311 315 316 316 313 310 317 321 324 323 326
268 267 268 271 274 275 274 277 281 282 285 289 290 294 289 292 294 296 300 300 301 301 301 283 287 298 296 294 298 300 302 304 306 307 308 309 312 314 315 316 312 313 320 320 326 325 327
264 267 269 271 272 273 277 280 281 281 290 284 282 288 289 288 291 293 294 296 296 297 291 286 292 290 289 296 297 300 302 306 306 307 308 311 313 315 318 311 312 319 318 324 325 326 326
260 266 268 270 271 277 274 273 280 278 284 276 286 286 283 289 290 291 292 284 293 287 281 288 286 287 292 294 298 301 303 305 305 308 309 310 312 313 315 312 318 317 322 324 326 327 327
261 268 273 266 269 278 276 277 276 283 279 282 285 284 287 285 285 283 284 271 266 271 277 281 282 288 291 296 299 301 302 303 306 308 310 310 314 315 314 314 320 318 324 325 327 326 326
263 264 270 268 271 275 274 277 264 278 277 281 284 285 285 276 266 274 264 267 275 271 277 278 284 290 296 298 299 300 303 305 307 309 310 313 314 314 316 319 319 322 324 325 326 326 324
267 267 269 261 268 258 276 264 276 281 279 271 278 272 273 261 262 258 262 272 272 273 279 283 289 293 296 297 298 302 304 306 307 310 311 314 312 312 318 317 322 323 324 325 324 324 321
269 266 269 269 273 263 268 276 266 275 280 265 267 268 270 258 257 258 269 269 270 279 283 287 291 294 294 297 302 302 304 306 308 310 312 312 312 317 314 320 322 324 324 323 323 321 318